Wind_Speed
43 44 43 40 37 34 33 32 33 35 34 34 27 34 33 30 28 27 32 33 34 36 39 41 42 39 40 40 41 44 45 45 45 47 50 51 53 54 56 56 59 64 68 74
48 48 46 42 41 39 36 37 37 37 38 36 28 34 33 33 32 31 33 34 37 38 38 42 43 40 42 42 43 45 45 47 46 50 52 53 54 57 59 61 65 69 73 77
49 52 48 44 44 41 40 40 39 39 41 39 32 36 36 34 35 35 32 35 43 42 41 40 42 43 45 45 44 43 45 46 49 49 50 53 56 59 63 66 69 72 75 78
55 54 48 44 47 44 44 42 42 43 42 40 37 38 40 38 36 40 40 36 37 44 46 46 46 47 48 48 47 47 48 49 50 52 54 57 60 62 66 70 73 75 78 81
57 53 51 49 48 49 46 46 47 44 42 40 41 42 41 41 40 41 40 40 40 41 44 51 51 52 52 52 53 53 53 54 55 56 57 60 64 66 69 72 75 78 81 84
58 53 51 51 53 54 51 42 54 44 40 41 43 43 41 42 43 44 44 43 44 43 44 46 49 54 56 58 58 59 60 61 62 63 65 67 69 71 73 76 79 83 86 89
58 53 52 53 53 58 52 51 52 47 42 43 46 45 45 45 47 46 46 48 50 51 52 50 49 50 51 51 54 56 59 62 64 66 69 72 74 76 78 81 83 85 89 91
61 56 56 56 57 56 54 53 50 49 50 51 50 49 46 49 50 49 48 51 54 54 54 58 56 54 52 57 59 63 65 68 70 72 74 76 79 81 82 82 84 88 92 95
65 59 59 60 60 58 58 57 56 55 55 53 52 52 52 54 54 54 53 54 56 58 62 62 60 53 54 57 61 64 64 64 59 57 61 67 71 75 80 85 89 92 95 97
64 58 59 60 60 60 60 58 58 55 58 53 52 53 56 58 58 58 59 58 60 62 66 64 59 56 58 63 63 58 52 50 54 57 62 68 76 81 81 84 90 93 92 94
62 62 63 61 63 62 60 60 59 59 59 54 55 58 60 62 63 63 60 61 62 64 64 62 60 64 69 72 66 61 60 62 63 67 73 77 82 86 81 84 87 87 89 90
63 66 64 64 66 62 62 62 58 58 59 59 61 63 65 63 65 64 63 64 66 68 64 70 70 74 72 70 70 69 66 69 72 77 82 84 88 91 85 81 83 84 87 92
71 67 66 64 64 61 57 59 59 60 61 61 63 65 66 66 66 67 67 68 68 71 74 79 77 77 71 70 67 68 73 74 80 84 88 88 89 82 81 84 89 91 97 102
64 64 64 63 61 60 59 60 60 62 65 64 65 66 66 68 70 68 68 71 74 76 75 78 75 73 71 71 73 74 76 76 76 75 78 79 86 92 94 95 98 100 103 107
66 66 64 60 62 62 61 62 64 66 66 66 67 67 68 71 72 74 74 75 77 79 78 75 72 70 70 73 78 80 79 79 78 86 90 96 99 103 105 103 104 108 113 113
67 66 64 63 62 62 64 64 67 69 71 70 72 72 73 74 76 77 77 80 79 79 79 78 75 75 77 81 83 86 88 91 95 98 102 107 110 110 109 111 114 115 117 118
70 69 68 66 63 64 66 68 70 72 73 74 75 75 76 79 80 80 79 82 81 82 84 85 81 81 84 87 90 93 96 100 101 105 110 111 110 112 115 117 118 119 119 117
69 67 65 66 68 69 70 72 74 75 76 76 78 79 81 83 82 83 82 84 84 83 80 79 83 86 88 90 95 97 100 105 108 108 108 111 114 116 118 120 120 119 116 113
69 69 70 70 71 71 74 76 76 77 79 79 81 83 85 85 83 83 83 84 85 85 83 85 87 92 94 97 99 102 108 111 111 113 115 116 119 121 121 120 117 114 112 111
71 73 75 75 76 77 77 77 79 80 81 83 85 88 85 83 82 80 80 83 83 85 88 91 96 98 101 104 108 111 112 111 115 118 118 119 119 119 117 114 113 112 110 107
73 75 78 78 81 80 79 79 82 83 85 87 88 86 83 80 82 81 80 83 86 89 92 96 99 100 103 105 107 109 113 116 117 117 119 118 116 114 113 111 109 106 102 97
77 79 80 82 82 82 82 83 84 87 89 87 84 80 79 80 80 82 86 89 92 94 96 98 99 102 105 107 109 112 113 115 118 117 116 114 113 112 110 107 104 99 95 91
80 81 82 82 83 84 84 86 89 86 81 81 78 79 80 82 85 91 93 95 95 94 96 99 102 104 106 109 111 114 115 115 114 113 112 110 108 106 102 98 94 91 88 85
82 83 84 85 85 86 89 87 83 81 81 81 83 84 89 92 94 93 92 95 97 98 99 100 103 107 109 110 110 111 111 111 111 109 107 103 100 97 93 90 87 84 81 78
82 84 85 85 86 84 83 82 79 78 80 83 85 87 87 88 90 93 95 95 97 100 101 104 105 107 108 109 109 109 108 106 103 100 98 95 91 88 85 82 79 77 74 71
80 81 80 79 78 76 77 78 81 83 83 83 84 85 88 92 93 94 96 98 99 101 103 103 104 105 106 105 103 100 99 97 94 92 89 87 83 80 78 75 73 70 67 64
74 73 73 75 75 78 80 81 82 83 84 86 89 90 91 92 93 95 96 98 100 102 102 102 102 99 97 96 94 92 90 89 87 84 81 77 75 73 71 68 66 63 60 57
Wind_Direction
244 250 258 262 269 271 281 291 301 308 317 328 318 319 319 330 317 287 280 285 286 285 285 284 282 281 283 286 286 284 284 286 283 280 281 285 284 283 278 276 276 277 279 280
241 248 254 258 267 270 277 286 295 304 308 318 314 313 318 321 325 313 287 277 280 284 283 282 282 284 287 289 287 288 292 290 285 283 283 285 283 281 280 279 279 280 282 283
242 248 254 260 262 270 275 281 294 297 303 312 311 308 316 315 317 326 314 290 278 275 275 274 276 278 280 284 284 284 287 287 288 287 285 283 282 281 281 282 283 284 286 288
241 248 254 257 257 264 269 280 288 292 299 308 306 309 310 313 316 322 322 318 310 283 279 278 275 275 277 280 282 283 283 285 287 288 289 289 288 288 288 288 288 288 288 288
238 247 250 257 262 262 267 278 284 288 298 298 303 306 306 307 313 313 317 313 314 310 294 281 280 279 280 281 281 282 283 284 284 284 285 285 286 286 287 287 289 290 291 292
238 245 250 253 256 264 270 278 276 287 291 290 299 300 301 300 307 310 309 305 309 306 307 298 291 287 286 286 285 285 284 284 284 285 287 287 287 287 288 288 289 290 291 292
238 242 244 250 257 264 271 265 280 286 287 285 293 292 295 298 302 308 307 303 301 301 304 305 300 293 290 287 284 283 283 284 285 285 286 286 287 287 289 290 291 292 293 294
236 240 242 249 255 263 266 276 277 279 285 290 292 289 293 297 299 303 302 300 301 301 300 301 302 300 289 288 286 285 286 285 286 288 289 290 291 291 291 291 290 290 290 292
236 239 244 250 255 261 269 275 275 283 289 291 288 290 292 296 300 299 300 300 300 299 300 299 299 295 288 290 291 289 290 291 291 290 292 293 292 292 292 291 291 292 293 295
238 242 245 249 255 261 265 269 278 281 286 289 285 287 288 293 296 297 299 298 299 298 299 302 301 298 300 301 307 296 288 284 286 290 295 300 304 300 296 294 293 293 294 294
237 243 246 251 256 259 263 269 273 281 284 284 281 283 287 291 293 296 297 299 299 299 299 303 304 304 300 299 302 304 290 289 287 291 294 296 301 301 295 293 295 297 296 296
236 241 248 251 256 259 264 268 275 279 282 279 283 287 291 290 292 295 298 299 299 301 304 303 302 301 301 304 303 302 298 292 290 294 296 295 298 297 300 297 296 298 299 302
239 245 250 253 256 262 265 270 274 280 280 282 285 285 288 290 292 295 298 300 300 297 296 297 297 300 298 298 301 300 296 293 290 291 296 291 299 300 301 303 304 306 306 305
241 244 248 252 255 259 266 268 273 276 280 282 282 285 288 291 294 295 295 295 294 294 297 300 301 298 296 297 299 300 298 296 293 293 300 304 306 308 307 307 308 306 305 305
241 245 248 251 257 262 266 268 272 276 277 278 280 283 287 289 292 293 295 294 296 297 297 301 301 300 298 297 295 290 294 291 296 305 307 310 310 310 309 306 306 307 307 307
239 242 248 254 259 263 265 267 271 273 277 277 279 283 287 291 292 295 295 294 296 298 299 303 299 296 295 299 303 306 307 308 307 307 308 308 308 307 307 308 307 307 307 307
241 246 250 257 261 263 265 269 272 274 274 276 280 285 289 291 292 294 295 296 300 302 301 302 303 302 302 304 306 307 305 304 305 305 304 305 306 307 307 306 306 306 307 307
245 250 255 259 262 265 268 272 273 273 275 278 283 286 288 292 294 294 296 297 298 297 296 296 298 301 303 303 303 301 302 302 301 303 304 305 306 305 305 305 306 306 307 308
250 254 257 260 263 266 270 271 272 274 278 281 283 286 290 292 291 292 293 293 295 296 298 299 299 299 298 296 298 298 299 300 301 303 304 303 304 304 305 305 306 307 308 308
252 255 258 262 265 268 270 271 274 277 280 283 286 289 287 287 288 290 290 291 294 295 295 295 293 294 294 295 295 296 299 300 301 302 302 303 304 305 306 306 307 307 307 307
254 257 260 263 267 268 269 272 275 279 283 285 287 287 285 285 286 287 288 288 290 291 291 292 292 292 294 296 297 298 300 300 301 302 303 304 305 305 306 306 306 306 306 307
256 259 263 265 267 270 274 276 279 281 284 285 284 283 284 284 285 288 290 290 290 290 291 293 294 296 297 298 299 299 300 301 302 303 304 304 305 306 306 305 306 306 306 306
259 262 264 266 269 272 275 280 283 285 284 284 283 284 285 285 287 289 289 290 293 293 295 296 297 298 298 298 299 300 300 301 302 303 304 305 305 304 304 305 305 305 305 305
260 263 266 268 272 276 278 281 283 283 284 284 283 286 287 286 286 289 292 294 295 295 296 297 297 297 298 299 300 300 301 302 303 304 303 303 303 304 304 304 305 305 305 305
262 265 269 273 275 277 278 280 282 284 286 286 285 285 286 288 290 293 294 295 296 296 296 297 298 299 299 300 300 301 302 302 302 302 302 303 303 304 304 305 305 305 305 304
267 269 271 275 278 280 282 283 283 283 282 283 285 287 289 291 292 293 294 294 295 296 297 298 298 298 299 299 301 301 302 302 302 302 303 303 304 305 305 305 304 304 304 305
269 272 274 278 280 281 280 280 280 282 285 287 288 289 290 292 293 294 294 295 296 297 298 297 298 299 301 302 302 302 301 302 303 303 304 305 305 305 305 305 305 305 305 306
Height
10559 10562 10565 10566 10567 10566 10567 10565 10564 10560 10559 10557 10554 10549 10544 10541 10538 10534 10532 10530 10527 10524 10523 10522 10523 10523 10520 10519 10516 10514 10511 10507 10502 10497 10494 10491 10488 10486 10483 10480 10477 10473 10469 10462
10549 10553 10556 10558 10559 10558 10558 10558 10557 10554 10551 10550 10547 10543 10540 10536 10532 10528 10525 10522 10520 10518 10517 10515 10512 10513 10508 10507 10504 10500 10497 10493 10488 10487 10484 10480 10477 10473 10469 10466 10462 10457 10453 10446
10541 10541 10546 10552 10547 10550 10550 10549 10548 10546 10543 10542 10539 10535 10532 10530 10526 10522 10517 10514 10511 10509 10506 10504 10503 10502 10500 10497 10494 10491 10486 10483 10478 10474 10471 10467 10463 10459 10454 10450 10445 10440 10433 10425
10528 10531 10540 10543 10538 10540 10540 10541 10539 10537 10535 10534 10530 10527 10523 10521 10517 10512 10508 10504 10500 10497 10495 10493 10491 10490 10488 10485 10482 10479 10475 10470 10466 10461 10457 10452 10448 10444 10439 10432 10426 10420 10413 10406
10519 10524 10528 10531 10530 10527 10531 10533 10528 10528 10528 10525 10521 10518 10515 10512 10509 10504 10501 10497 10492 10488 10485 10482 10478 10476 10474 10471 10468 10464 10461 10458 10453 10448 10444 10438 10433 10427 10421 10415 10408 10400 10392 10384
10508 10515 10521 10519 10515 10514 10519 10526 10511 10521 10520 10516 10514 10511 10508 10502 10501 10496 10492 10488 10484 10480 10475 10471 10467 10464 10461 10458 10454 10450 10446 10441 10437 10433 10428 10422 10417 10410 10404 10396 10389 10380 10371 10362
10495 10503 10510 10508 10506 10502 10511 10504 10508 10509 10509 10508 10506 10501 10497 10495 10491 10487 10483 10478 10473 10469 10464 10459 10454 10450 10447 10442 10438 10434 10430 10425 10420 10415 10411 10405 10399 10392 10385 10377 10369 10360 10348 10339
10483 10491 10498 10498 10493 10494 10492 10497 10497 10497 10497 10495 10494 10491 10488 10485 10480 10477 10473 10468 10463 10458 10453 10448 10442 10437 10433 10428 10424 10419 10414 10409 10405 10400 10394 10388 10381 10373 10365 10356 10347 10337 10327 10315
10471 10478 10482 10485 10485 10485 10484 10485 10485 10486 10485 10483 10481 10479 10475 10472 10468 10465 10461 10456 10451 10446 10440 10435 10430 10425 10420 10415 10409 10403 10398 10393 10387 10381 10374 10368 10360 10352 10344 10334 10324 10315 10304 10293
10460 10470 10469 10472 10473 10473 10472 10472 10475 10473 10472 10471 10469 10466 10462 10459 10456 10452 10447 10442 10437 10432 10427 10422 10416 10410 10405 10399 10393 10386 10380 10375 10369 10362 10356 10348 10341 10331 10322 10310 10301 10291 10281 10271
10452 10453 10456 10461 10458 10458 10461 10463 10462 10462 10460 10460 10457 10453 10449 10446 10442 10438 10433 10428 10423 10418 10412 10406 10401 10396 10389 10382 10376 10371 10365 10359 10352 10344 10337 10328 10319 10310 10299 10287 10277 10268 10258 10247
10437 10436 10445 10445 10445 10449 10449 10448 10450 10450 10449 10447 10443 10440 10436 10433 10428 10423 10418 10413 10407 10400 10393 10390 10384 10379 10372 10364 10358 10352 10346 10340 10333 10325 10317 10308 10299 10288 10275 10267 10255 10243 10232 10222
10424 10429 10429 10433 10434 10435 10434 10434 10436 10436 10435 10433 10429 10426 10422 10419 10413 10407 10403 10396 10388 10384 10380 10375 10368 10361 10355 10348 10341 10334 10328 10320 10313 10304 10296 10285 10276 10264 10256 10243 10226 10217 10205 10195
10411 10414 10417 10420 10421 10421 10423 10422 10422 10422 10420 10418 10414 10410 10407 10402 10396 10392 10387 10381 10376 10369 10362 10356 10349 10342 10336 10328 10322 10316 10308 10300 10291 10281 10271 10259 10249 10238 10226 10214 10203 10195 10186 10168
10398 10401 10403 10406 10409 10410 10410 10410 10408 10406 10404 10402 10399 10395 10391 10386 10382 10376 10370 10363 10356 10350 10344 10337 10329 10322 10315 10309 10301 10294 10284 10273 10263 10252 10242 10231 10219 10209 10198 10186 10174 10161 10148 10137
10382 10386 10391 10395 10396 10397 10396 10396 10394 10391 10389 10385 10382 10378 10374 10370 10363 10357 10350 10344 10338 10331 10323 10316 10310 10304 10295 10285 10274 10266 10256 10246 10237 10227 10216 10205 10194 10182 10169 10156 10143 10131 10119 10107
10372 10377 10380 10383 10383 10382 10381 10380 10378 10376 10372 10369 10366 10362 10358 10351 10345 10339 10332 10324 10317 10309 10300 10293 10286 10279 10271 10261 10252 10243 10234 10224 10214 10203 10193 10180 10167 10154 10141 10128 10115 10103 10089 10077
10362 10365 10367 10367 10366 10367 10366 10364 10362 10358 10356 10353 10349 10344 10338 10332 10325 10317 10310 10303 10298 10292 10284 10276 10268 10259 10249 10240 10232 10224 10213 10203 10192 10179 10165 10152 10140 10127 10114 10101 10087 10074 10059 10045
10348 10350 10349 10350 10351 10351 10350 10347 10344 10342 10339 10336 10330 10325 10319 10313 10306 10300 10294 10287 10278 10271 10262 10254 10246 10238 10229 10220 10210 10200 10189 10177 10165 10152 10139 10126 10114 10100 10086 10072 10057 10043 10029 10016
10334 10334 10334 10335 10336 10335 10333 10331 10327 10324 10320 10314 10311 10305 10299 10292 10286 10281 10275 10267 10259 10251 10243 10235 10226 10216 10205 10196 10186 10173 10161 10148 10136 10124 10111 10097 10084 10070 10055 10042 10028 10014 10001 9988
10319 10319 10318 10319 10318 10317 10316 10314 10310 10307 10302 10296 10291 10285 10279 10273 10267 10261 10255 10248 10240 10230 10221 10211 10201 10191 10179 10168 10156 10144 10132 10119 10107 10093 10080 10067 10053 10039 10026 10013 9999 9987 9974 9962
10303 10303 10303 10302 10301 10299 10298 10296 10292 10287 10282 10276 10270 10264 10258 10252 10246 10239 10232 10223 10215 10205 10196 10185 10174 10163 10151 10138 10127 10115 10103 10090 10077 10064 10050 10037 10024 10011 9997 9983 9971 9960 9948 9937
10290 10289 10287 10285 10283 10282 10279 10276 10271 10267 10261 10256 10249 10243 10236 10230 10223 10215 10206 10198 10188 10178 10168 10156 10146 10134 10122 10110 10099 10086 10073 10060 10047 10033 10020 10008 9995 9983 9970 9958 9947 9936 9925 9914
10272 10271 10270 10268 10266 10264 10259 10255 10250 10245 10240 10234 10227 10220 10214 10206 10197 10189 10179 10170 10160 10150 10141 10130 10118 10106 10094 10081 10068 10055 10042 10029 10016 10004 9991 9979 9967 9956 9944 9934 9923 9911 9901 9891
10256 10255 10253 10251 10248 10243 10239 10235 10230 10225 10219 10212 10204 10196 10188 10179 10172 10163 10154 10144 10134 10124 10115 10100 10088 10076 10064 10052 10038 10026 10014 10001 9989 9976 9964 9953 9942 9931 9920 9909 9898 9888 9879 9870
10240 10237 10235 10232 10229 10225 10221 10216 10210 10203 10195 10187 10180 10172 10165 10156 10147 10137 10128 10118 10107 10095 10083 10073 10062 10049 10036 10024 10012 9999 9986 9973 9961 9950 9938 9928 9918 9907 9896 9886 9876 9867 9859 9851
10222 10221 10217 10214 10210 10204 10198 10191 10183 10177 10171 10165 10156 10149 10140 10131 10122 10111 10100 10090 10078 10067 10055 10044 10032 10021 10009 9995 9982 9970 9958 9947 9936 9925 9915 9905 9895 9886 9876 9866 9857 9848 9841 9834